Content
SEND FEEDBACK

Daily
Averages
Monthly
Summary
United States of America

POTTS JUNCTION, GUAM


Home > North America > United States > Guam
Elevation: 360 feet     Latitude: 13 33N     Longitude: 144 50E

WEATHER
 
SELECT A DAY
Number of Records: 208,997;   Date Range: 1/1/95 - 7/26/14
 
SHARE

PRINT THIS DATA

[ ← Previous Day ]
WEATHER ALMANAC - MAY 9, 2013
[ Next Day → ]
[ °C ]   °F
Weather ElementAverageHighLow
Temperature85.8 °F90 °F (11:54 am)82 °F (1:54 am)
Dewpoint74.5 °F75.9 °F (1:54 am)71.1 °F (3:54 pm)
Humidity69.5 %82 % (1:54 am)55 % (1:54 pm)
Barometer29.84 in29.88 in (9:54 pm)29.79 in (3:54 pm)
Wind Speed7.9 mph12.7 mph (10:54 am)
Weather ElementAverage
Visibility10 mi
Wind DirectionENE (74.8 °)

Weather ElementTotal
Precipitation---
Cooling Degree Days21 (Base 65)
Growing Degree Days36 (Base 50)
Averaged from 23 records on May 9, 2013
WEATHER CONDITIONS BREAKOUT
WIND DIRECTION BREAKOUT
WEATHER BY HOUR - MAY 9, 2013
[ °C ]   °F
Local TimeTemperatureDewpointHumidityBarometerVisibilityWind DirectionWind SpeedGust SpeedPrecipitationEventsConditions
1:54 AM82.0 °F75.9 °F82 %29.82 in10.0 miNE (50°)5.8 mphPartly Cloudy
2:54 AM82.9 °F75.9 °F79 %29.81 in10.0 miENE (70°)5.8 mphScattered Clouds
3:54 AM82.9 °F75.0 °F77 %29.80 in10.0 miENE (70°)4.6 mphScattered Clouds
4:54 AM82.9 °F75.9 °F79 %29.81 in10.0 miENE (70°)6.9 mphClear
5:54 AM82.9 °F75.9 °F79 %29.82 in10.0 miEast (80°)3.5 mphPartly Cloudy
6:54 AM84.0 °F73.9 °F72 %29.84 in10.0 miEast (80°)5.8 mphClear
7:54 AM84.9 °F75.0 °F72 %29.86 in10.0 miEast (80°)10.4 mphPartly Cloudy
8:54 AM87.1 °F73.9 °F65 %29.87 in10.0 miENE (60°)11.5 mphScattered Clouds
9:54 AM88.0 °F75.0 °F65 %29.87 in10.0 miEast (90°)9.2 mphScattered Clouds
10:54 AM88.0 °F73.0 °F61 %29.86 in10.0 miEast (90°)12.7 mphPartly Cloudy
11:54 AM90.0 °F73.0 °F57 %29.85 in10.0 miEast (100°)12.7 mphClear
12:54 PM89.1 °F72.0 °F57 %29.84 in10.0 miEast (100°)12.7 mphPartly Cloudy
1:54 PM90.0 °F72.0 °F55 %29.81 in10.0 miEast (90°)9.2 mphPartly Cloudy
2:54 PM90.0 °F72.0 °F55 %29.80 in10.0 miEast (90°)10.4 mphClear
3:54 PM89.1 °F71.1 °F55 %29.79 in10.0 miESE (110°)10.4 mphClear
4:54 PM87.1 °F75.0 °F67 %29.80 in10.0 miESE (110°)9.2 mphPartly Cloudy
5:54 PM87.1 °F75.0 °F67 %29.82 in10.0 miENE (70°)9.2 mphClear
6:54 PM86.0 °F75.0 °F70 %29.84 in10.0 miENE (60°)8.1 mphClear
7:54 PM84.9 °F75.9 °F74 %29.85 in10.0 miNE (50°)4.6 mphClear
8:54 PM84.0 °F75.9 °F76 %29.87 in10.0 miNE (50°)4.6 mphPartly Cloudy
9:54 PM84.0 °F75.9 °F76 %29.88 in10.0 miNE (50°)4.6 mphPartly Cloudy
10:54 PM82.9 °F75.9 °F79 %29.87 in10.0 miNE (50°)4.6 mphClear
11:54 PM82.9 °F75.9 °F79 %29.86 in10.0 miNE (50°)5.8 mphClear
Hourly data recorded from PGUM, located miles away from Potts Junction, Guam







STORIES FROM OUR PARTNERS